Wisconsin Rapids, WI

5:06 PM CST on November 24, 2017 (GMT -0600)
Alexander Field South Wood County

Weather History for KISW - September, 2013

Change the Weather History Date:

Saturday, September 7, 2013

  Actual Average Record
Temperature  
Mean Temperature 80 °F -  
Max Temperature 93 °F 76 °F 95 °F (1976)
Min Temperature 68 °F 51 °F 33 °F (1953)
Cooling Degree Days 14    
Growing Degree Days 30 (Base 50)    
Moisture  
Dew Point 63 °F    
Average Humidity 63    
Maximum Humidity 83    
Minimum Humidity 41    
Precipitation  
Precipitation 0.00 in - - ()
Sea Level Pressure  
Sea Level Pressure 29.94 in    
Wind  
Wind Speed 6 mph (ENE)    
Max Wind Speed 14 mph    
Max Gust Speed 26 mph    
Visibility 10 miles    
Events      
Averages and records for this station are not official NWS values.
T = Trace of Precipitation, MM = Missing Value Source: NWS Daily Summary

Daily Weather History Graph

Daily Weather History Graph

Search for Another Location

Airport or City:

Trip Planner

Search our weather history database for the weather conditions in past years. The results will help you decide how hot, cold, wet, or windy it might be!

Date:

Astronomy

Sep. 07, 2013 Rise Set
Actual Time 6:29 AM CDT 7:24 PM CDT
Civil Twilight 5:59 AM CDT 7:53 PM CDT
Nautical Twilight 5:24 AM CDT 8:28 PM CDT
Astronomical Twilight 4:47 AM CDT 9:05 PM CDT
Moon 8:51 AM CDT (9/7) 8:14 PM CDT (9/7)
Length of Visible Light 13h 53m
Length of Day
12h 54m
Waxing Crescent, 5% of the Moon is Illuminated
Sep 7
Waxing Crescent
Sep 12
First Quarter
Sep 19
Full
Sep 26
Last Quarter
Oct 4
New

Hourly Weather History & Observations

Time (CDT) Temp. Heat Index Dew Point Humidity Pressure Visibility Wind Dir Wind Speed Gust Speed Precip Events Conditions
12:54 AM 70.0 °F - 63.0 °F 78% 29.96 in 10.0 mi Calm Calm - N/A   Clear
1:54 AM 69.1 °F - 63.0 °F 81% 29.94 in 10.0 mi South 4.6 mph - N/A   Partly Cloudy
2:54 AM 69.1 °F - 62.1 °F 78% 29.93 in 10.0 mi SSW 3.5 mph - N/A   Clear
3:54 AM 69.1 °F - 61.0 °F 75% 29.92 in 10.0 mi South 3.5 mph - N/A   Scattered Clouds
4:54 AM 68.0 °F - 62.1 °F 81% 29.91 in 10.0 mi SSW 4.6 mph - N/A   Clear
5:54 AM 68.0 °F - 62.1 °F 81% 29.90 in 10.0 mi SSW 4.6 mph - N/A   Partly Cloudy
6:54 AM 71.1 °F - 61.0 °F 70% 29.91 in 10.0 mi SSW 8.1 mph - N/A   Clear
7:54 AM 73.0 °F - 61.0 °F 66% 29.91 in 10.0 mi SSW 9.2 mph - N/A   Overcast
8:54 AM 73.9 °F - 61.0 °F 64% 29.91 in 10.0 mi WSW 6.9 mph - N/A   Mostly Cloudy
9:54 AM 78.1 °F - 62.1 °F 58% 29.91 in 10.0 mi West 9.2 mph - N/A   Mostly Cloudy
10:54 AM 81.0 °F 82.2 °F 63.0 °F 54% 29.91 in 10.0 mi WNW 6.9 mph - N/A   Clear
11:54 AM 86.0 °F 86.8 °F 63.0 °F 46% 29.91 in 10.0 mi NE 4.6 mph - N/A   Clear
12:54 PM 88.0 °F 88.7 °F 63.0 °F 43% 29.89 in 10.0 mi Variable 4.6 mph - N/A   Clear
1:54 PM 91.0 °F 92.6 °F 64.0 °F 41% 29.89 in 10.0 mi NE 6.9 mph - N/A   Clear
2:54 PM 91.9 °F 94.1 °F 64.9 °F 41% 29.88 in 10.0 mi NNW 6.9 mph - N/A   Scattered Clouds
3:54 PM 90.0 °F 91.7 °F 64.9 °F 43% 29.89 in 10.0 mi NNE 11.5 mph - N/A   Mostly Cloudy
4:54 PM 90.0 °F 91.3 °F 64.0 °F 42% 29.90 in 10.0 mi North 9.2 mph - N/A   Clear
5:54 PM 89.1 °F 91.3 °F 66.0 °F 46% 29.91 in 10.0 mi NNE 6.9 mph - N/A   Clear
6:54 PM 87.1 °F 88.9 °F 64.9 °F 48% 29.92 in 10.0 mi NNE 8.1 mph - N/A   Clear
7:54 PM 82.0 °F 84.1 °F 66.0 °F 58% 29.94 in 10.0 mi NNE 6.9 mph - N/A   Clear
8:30 PM 78.8 °F - 64.4 °F 61% 30.00 in 10.0 mi East 13.8 mph 26.5 mph N/A   Partly Cloudy
8:54 PM 75.9 °F - 64.0 °F 67% 29.99 in 10.0 mi East 13.8 mph 21.9 mph N/A   Clear
9:54 PM 73.9 °F - 64.0 °F 71% 30.00 in 10.0 mi ENE 10.4 mph - N/A   Clear
10:54 PM 72.0 °F - 66.0 °F 81% 30.01 in 10.0 mi ENE 11.5 mph - N/A   Partly Cloudy
11:07 PM 71.6 °F - 66.2 °F 83% 30.04 in 10.0 mi East 9.2 mph 17.3 mph N/A   Mostly Cloudy
11:54 PM 70.0 °F - 63.0 °F 78% 30.04 in 10.0 mi ENE 12.7 mph 20.7 mph N/A   Mostly Cloudy